Starlink 11101

operational
NORAD ID: 59715 Int'l Des: 2024-088 Owner: SPXS Country: US Constellation: starlink
LEOCIRCULAR

About Starlink 11101

Description loading...

Live Position

Loading 3D Globe...

Upcoming Passes

Altitude History

Altitude vs Time

uPlot chart will show altitude changes over time

Two-Line Element Set

1 59715U 24088H 25304.12374662 .00006522 00000-0 58630-4 0 9995
2 59715 53.1581 244.8941 0001183 71.6084 288.5063 15.69718605 85927
Epoch: Oct 31, 2025 • Age: 17 hours

Current Status

Altitude 364.1 km
Velocity 7.70 km/s
Sub-Earth Point 46.56°N, 25.08°E
Launch Date May 10, 2024
Age 1.4 years
Type internet

Technical Details

Classification Payload
Mass 960.00 kg
Dry Mass 910.00 kg
Total Mass 960.00 kg
Length 0.30 m
Diameter 4.10 m
Span 29.00 m
Shape Box + pan
Manufacturer SPXS
Bus Type Starlink V2MD
Phase Status In Orbit
Owner/State SPXS/US

Large Constellations

Loading constellations...